SL-14 R/B, 19275

Orbit data source: Space-Track

SL-14 R/B, 19275 is space debris in LEO originally from a launch on Tue, 05 Jul 1988 UTC launched from the Plesetsk Missile And Space Complex (PKMTR). Debris objects in space refer to the collection of defunct objects orbiting the Earth. Examples of debris include non-operational satellites, rocket bodies, and fragments generated from explosions, collisions, or faulty payload assembly.

Loading next visibility...
Identifier
19275, 1988-056B
Orbit
LEO
Country
Flag of CISCIS
Related business
Manufacturer
Yuzhnoe
Mission
Spacecraft
Bus & Motor
S5M, Unknown motor
Mass
1,600 kg wet, 1,600 kg dry
Launch date (UTC)
1988-07-05 (38 years ago)
Launch vehicle
Unknown
Launch site
Plesetsk Missile And Space Complex (PKMTR)
Object type
Payload
Rocket body
Debris
Shape & HBR
Cyl, 1.4 m
Radar Cross Section
7.351 m², Large (>1 m²)

Expand to show TLE details & history
Last TLE update: 2 days ago

TLE from 2 days ago
0 SL-14 R/B
1 19275U 88056B   26171.46732485  .00000318  00000-0  34178-4 0  9996
2 19275  82.5147 127.9798 0019623 156.5348 203.6768 14.85189296 29926
Epoch: 2026-06-20T11:12Z
TLE epoch observation values (Epoch: 2026-06-20T11:12:56.867Z)
Latitude
0.00001°
Longitude
51.06133°
Altitude
628.603 km
Speed
7.537 km/s
True Right ascension
08h 31m 55s
True Declination
0° 00' 00"
Sunlit
Object was in daylight at epoch
Visualization orbit readout
Latitude
Unknown
Longitude
Unknown
Altitude
Unknown
Speed
Unknown
Apparent Right ascension
Unknown
Apparent Declination
Unknown
Sunlit
N/A
Visualization observer readout
Local Sidereal Time
23:21:11
Azimuth
Unknown
Elevation
Unknown
Doppler factor
Unknown
Orbital elements
Apogee altitude
623.72 km
Perigee altitude
596.295 km
Semi-major axis
6,988.145 km
Eccentricity
0.00196
Inclination
82.5147°
RAAN
127.9798°
Arg. of periapsis
156.5348°
True anomaly
203.5867°
Mean anomaly
203.6768°
Eccentric anomaly
203.63173°
Mean motion
3.71536 °/min
Orbital period
96.9 mins
BSTAR
0.000034178
Loading maneuver chart data...
Computing Atmospheric mass density...
Loading historical data...
Loading historical data...
Loading historical data...
Loading historical data...
Loading historical data...
Loading historical data...
Loading historical data...
Other satellites on launch #56 in the year 1988 (1988-07-05 UTC)

Documentation

Showing up to 5 results
|